e   0.5099026      Incl.   20.11693     +0.55905532     -0.13864545

P  10.67 (+/- 0.01 day)

From 383 observations 2004 Nov. 3-2005 Dec. 19, mean residual 0".61.



NAKANO

         **** Don't distribute anyone except personal use only ****

                (C) Copyright 2006 OAA/ComputingSection

write mail from CFAD0::NAKANO on 2006-01-01 05:09:23(JST).

 



    P/2004 VR8 (LONEOS)

Epoch 2005 Aug. 18.0 TT = JDT 2453600.5  

T 2005 Sept. 2.50899 TT                                 Nakano

q   2.3757161            (2000.0)            P               Q

n   0.09235580     Peri.   63.09900     -0.64710070     -0.68937417

a   4.8472261      Node    71.21633     +0.51838787     -0.71101211

e   0.5098813      Incl.   20.11653     +0.55904804     -0.13865438

P  10.67 (+/- 0.01 day)

From 364 observations 2004 Nov. 3-2005 Sept. 30, mean residual 0".61.



NAKANO

         **** Don't distribute anyone except personal use only ****

                (C) Copyright 2005 OAA/ComputingSection

write mail from CFAD0::NAKANO on 2005-11-03 23:39:18(JST).

 



    P/2004 VR8 (LONEOS)                                                   

Epoch 2005 Aug. 18.0 TT = JDT 2453600.5  

T 2005 Sept. 2.50974 TT                                 Nakano

q   2.3757062            (2000.0)            P               Q

n   0.09235983     Peri.   63.09938     -0.64710763     -0.68936922

a   4.8470850      Node    71.21643     +0.51838376     -0.71101581

e   0.5098691      Incl.   20.11630     +0.55904382     -0.13866004

P  10.67 (+/- 0.04 day)

From 328 observations 2004 Nov. 3-2005 Mar. 30, mean residual 0".58.



NAKANO

         **** Don't distribute anyone except personal use only ****

                (C) Copyright 2005 OAA/ComputingSection

write mail from CFAD0::NAKANO on 2005-04-06 02:03:09(JST).



    P/2004 VR8 (LONEOS)                                                   

Epoch 2005 Aug. 18.0 TT = JDT 2453600.5  

T 2005 Sept. 2.51355 TT                                 Nakano

q   2.3757253            (2000.0)            P               Q

n   0.09235902     Peri.   63.09969     -0.64710573     -0.68936781

a   4.8471133      Node    71.21617     +0.51837923     -0.71101742

e   0.5098680      Incl.   20.11677     +0.55905022     -0.13865874

P  10.67 (+/- 0.09 day)

From 239 observations 2004 Nov. 3-2005 Jan. 31, mean residual 0".55.



NAKANO

         **** Don't distribute anyone except personal use only ****

                (C) Copyright 2005 OAA/ComputingSection

write mail from CFAD0::NAKANO on 2005-02-04 04:54:56(JST).

 

    P/2004 VR8 (LONEOS)                                                   

T 2005 Sept. 2.46471 TT                                 Nakano

q   2.3757211            (2000.0)            P               Q

n   0.09228046     Peri.   63.08993     -0.64696499     -0.68949318

a   4.8498640      Node    71.21470     +0.51850729     -0.71091715

e   0.5101469      Incl.   20.11787     +0.55909435     -0.13854947

P  10.68 (+/- 0.17 day)

From 167 observations 2004 Nov. 3-2005 Jan. 1.



NAKANO

         **** Don't distribute anyone except personal use only ****

                (C) Copyright 2005 OAA/ComputingSection

write mail from CFAD0::NAKANO on 2005-01-04 01:58:32(JST).

 



◎P/2004 VR8の軌道と予報位置です



  上尾の門田健一氏から12月11日の観測が報告されました.氏の CCD全光度は,

17.4等です.核光度で16等級の観測があります.彗星は,16等級と思われます.

なお,観測は,下のリスト以外に10個ほどありますが,隠されていて,見つけ

ることができません.12月4日以前は,同じ観測数です.



    P/2004 VR8 (LONEOS)

T 2005 Sept. 2.61517 TT                                 Nakano

q   2.3759697            (2000.0)            P               Q

n   0.09227672     Peri.   63.11393     -0.64714180     -0.68926172

a   4.8499949      Node    71.20951     +0.51819249     -0.71111282

e   0.5101088      Incl.   20.12745     +0.55918157     -0.13869689

P  10.68 (+/- 0.52 day)

From 63 observations 2004 Nov. 4-Dec. 11.

 

Date/        TT  R.A.(2000) Decl.     Delta   r     Daily motion  Mag.  Moon Age

              h    h  m       。  ,                      ,  / PA 。  m1      。

2004 Dec. 10 14  03 35.34  +14 34.6   2.186  3.111    12.2 / 287  16.6  172  .03

          11 14  03 34.54  +14 38.1   2.188  3.107    12.0 / 288  16.6  160  .00

          12 14  03 33.75  +14 41.7   2.190  3.102    11.8 / 288  16.6  145  .01

          13 14  03 32.98  +14 45.4   2.192  3.098    11.6 / 289  16.6  130  .04

          14 14  03 32.22  +14 49.1   2.194  3.093    11.4 / 289  16.6  115  .10

          15 14  03 31.48  +14 52.9   2.197  3.089    11.2 / 290  16.6  100  .18

          16 14  03 30.75  +14 56.8   2.200  3.085    11.0 / 291  16.6   86  .27

          17 14  03 30.04  +15 00.7   2.203  3.080    10.8 / 292  16.6   72  .38

          18 14  03 29.35  +15 04.7   2.206  3.076    10.6 / 293  16.6   58  .49

          19 14  03 28.68  +15 08.8   2.210  3.071    10.3 / 294  16.6   45  .59

          20 14  03 28.03  +15 12.9   2.214  3.067    10.1 / 295  16.6   32  .69

          21 14  03 27.39  +15 17.1   2.218  3.063     9.9 / 296  16.6   20  .78

          22 14  03 26.78  +15 21.4   2.222  3.058     9.6 / 297  16.6    8  .86

          23 14  03 26.18  +15 25.7   2.227  3.054     9.4 / 298  16.6    8  .92

          24 14  03 25.61  +15 30.1   2.231  3.050     9.1 / 299  16.6   19  .96

          25 14  03 25.06  +15 34.6   2.236  3.045     8.9 / 301  16.6   31  .99

          26 14  03 24.53  +15 39.1   2.241  3.041     8.7 / 302  16.6   42 1.00

          27 14  03 24.02  +15 43.7   2.247  3.037     8.4 / 304  16.6   54  .99

          28 14  03 23.54  +15 48.4   2.253  3.032     8.2 / 305  16.6   66  .96

          29 14  03 23.07  +15 53.1   2.258  3.028     7.9 / 307  16.6   78  .92

          30 14  03 22.63  +15 57.9   2.264  3.024     7.7 / 309  16.6   90  .86

          31 14  03 22.22  +16 02.8   2.271  3.019     7.5 / 311  16.6  102  .79

2005 Jan.  1 14  03 21.83  +16 07.7   2.277  3.015     7.3 / 313  16.6  114  .71

           2 14  03 21.46  +16 12.7   2.283  3.011     7.1 / 316  16.6  127  .62

           3 14  03 21.12  +16 17.7   2.290  3.006     6.9 / 318  16.6  139  .52

           4 14  03 20.80  +16 22.8   2.297  3.002     6.7 / 321  16.6  152  .41

           5 14  03 20.50  +16 28.0   2.304  2.998     6.5 / 324  16.6  166  .31

           6 14  03 20.23  +16 33.3   2.311  2.994     6.4 / 327  16.6  176  .21

           7 14  03 19.99  +16 38.6   2.319  2.989     6.2 / 330  16.6  165  .12

           8 14  03 19.77  +16 44.0   2.326  2.985     6.1 / 333  16.6  150  .06

           9 14  03 19.58  +16 49.4   2.334  2.981     6.0 / 336  16.6  135  .01

          10 14  03 19.41  +16 54.9   2.342  2.977     5.9 / 340  16.6  120  .00

NAKANO

         **** Don't distribute anyone except personal use only ****

                (C) Copyright 2004 OAA/ComputingSection

write mail from CFAD0::NAKANO on 2004-12-12 05:43:42(JST).

 

戻ります。